[[{"header":{"parameterUnit":"m.s-1","parameterCategory":1,"la1":30.2991,"la2":30.254,"lo1":-89.0895,"lo2":-89.0444,"dy":0.0017,"dx":0.0017,"nx":28,"ny":28,"refTime":"2023-09-07T21:00:00:Z","depth":0,"parameterNumber":2,"parameterNumberName":"U-component_of_WINDS"},"data":[0,0,0,0,0,0,0,0,0,0,0,0,0,0,0,0,0,0,0,0,0,0,0,0,0,0,0,0,0,0,0,0,0,0,0,0,0,0,0,0,0,0,0,0,0,0,0,0,0,0,0,0,0,0,0,0,0,0,0.5954,0.5953,0,0.5923,0.5922,0.5922,0.595,0.5951,0.5953,0.5954,0.5921,0.5919,0.5917,0,0,0,0,0,0,0,0,0,0,0,0,0,0.6037,0.6035,0.5954,0.5953,0.5953,0.5923,0.5922,0.5922,0.595,0.5951,0.5953,0.5954,0.5922,0.5919,0.5917,0,0,0,0,0,0,0,0,0,0,0,0,0,0.6003,0.6035,0.5954,0.5963,0.5964,0.5923,0.5922,0.5922,0.595,0.5952,0.5953,0.5955,0.5922,0.5919,0.5917,0.5864,0,0,0.5908,0.5906,0,0,0,0,0,0,0,0,0.6005,0.6,0.5962,0.5963,0.5963,0.5942,0.594,0.5902,0.5949,0.5955,0.5954,0.5956,0.5926,0.5923,0.5914,0.5862,0.5861,0.5907,0.5906,0.5904,0.5904,0,0,0,0,0,0,0,0.6007,0.6001,0.5941,0.5962,0.5962,0.5969,0.5966,0.5933,0.5931,0.5955,0.5957,0.5953,0.5927,0.5916,0.5913,0.5861,0.5907,0.5905,0.5903,0.5902,0.5766,0.5764,0,0,0,0,0,0,0.6008,0.6003,0.5942,0.594,0.5989,0.5966,0.5963,0.5947,0.5932,0.5931,0.5951,0.5954,0.5921,0.5916,0.5912,0.585,0.5904,0.5902,0.59,0.5768,0.5766,0.5764,0,0,0,0,0,0,0.601,0.6003,0.5944,0.5972,0.5965,0.5963,0.5945,0.5946,0.5935,0.5929,0.5929,0.5941,0.5922,0.5916,0.5876,0.585,0.59,0.5898,0.577,0.5767,0.5765,0.5726,0,0,0,0,0,0,0.6012,0.6003,0.5983,0.5972,0.5964,0.5908,0.5943,0.5944,0.593,0.5933,0.5919,0.5919,0.5923,0.588,0.5873,0.5846,0.5895,0.5772,0.5769,0.5765,0.573,0.5722,0.5716,0,0,0,0,0,0.6015,0.5973,0.5982,0.5974,0.5938,0.5906,0.5902,0.5908,0.5928,0.5908,0.5904,0.5919,0.5854,0.5876,0.5868,0.584,0.5774,0.577,0.5766,0.5733,0.5724,0.5716,0,0,0,0,0,0,0.5981,0.5972,0.5981,0.5934,0.5921,0.5911,0.5886,0.5898,0.5878,0.5882,0.589,0.5887,0.5844,0.5838,0.5863,0.5789,0.5817,0.5811,0.5795,0.5786,0.5779,0.5782,0.5893,0,0,0,0,0,0.5968,0.5943,0.5936,0.5895,0.5888,0.5888,0.5874,0.588,0.5866,0.5861,0.5854,0.584,0.5817,0.5801,0.5779,0.5729,0.5727,0.5706,0.5699,0.5693,0.5688,0.5662,0.5653,0.575,0.575,0.575,0,0,0.594,0.5932,0.5916,0.5888,0.5878,0.5852,0.5883,0.5854,0.5835,0.5856,0.5818,0.5813,0.5798,0.5753,0.5733,0.5747,0.5661,0.5688,0.5684,0.5681,0.5657,0.5648,0.564,0.5747,0.5747,0.5748,0,0,0.5877,0.5868,0.5834,0.5824,0.5809,0.581,0.5802,0.579,0.5788,0.575,0.5766,0.5743,0.5702,0.5691,0.568,0.5615,0.5628,0.5607,0.5571,0.5546,0.5538,0.5532,0.5509,0.55,0.5602,0.5602,0.5602,0,0.5845,0.5807,0.5814,0.5784,0.5772,0.5791,0.5756,0.5746,0.5725,0.5716,0.5732,0.5681,0.5673,0.5626,0.561,0.56,0.5591,0.5609,0.5539,0.5532,0.5526,0.5504,0.5496,0.56,0.56,0.56,0.56,0,0.5768,0.5741,0.5715,0.5695,0.5679,0.5647,0.565,0.5633,0.5641,0.564,0.5601,0.5592,0.5569,0.5558,0.5564,0.5512,0.5521,0.5538,0.5566,0.5514,0.5494,0.5486,0.5596,0.5597,0.5598,0.5598,0,0,0.5682,0.5667,0.5657,0.5649,0.5635,0.5614,0.5583,0.5561,0.5547,0.5532,0.5506,0.5472,0.5487,0.5475,0.548,0.5458,0.5407,0.5477,0.5477,0.5465,0.535,0.5338,0.5328,0.5416,0.5415,0.5413,0.5352,0,0.5619,0.5565,0.5572,0.552,0.5496,0.5514,0.5487,0.5476,0.5474,0.5453,0.5452,0.5427,0.5449,0.5442,0.5421,0.5418,0.5384,0.5423,0.5392,0.5391,0.5396,0.5317,0.5304,0.5246,0.5344,0.5342,0.5341,0,0.5538,0.5521,0.5467,0.5458,0.5448,0.5423,0.5404,0.5384,0.5372,0.5372,0.5359,0.5369,0.5338,0.5367,0.5325,0.535,0.5339,0.5335,0.5333,0.5331,0.5363,0.5313,0.5228,0.5219,0.5329,0.533,0.5331,0,0.5481,0.5445,0.5408,0.54,0.5388,0.5371,0.5365,0.5354,0.5341,0.5324,0.5316,0.5295,0.5284,0.5268,0.5272,0.5293,0.5229,0.5258,0.5229,0.5229,0.5215,0.5216,0.5127,0.5207,0.5207,0.5207,0.5207,0,0.541,0.5377,0.5383,0.536,0.5324,0.5332,0.5295,0.5292,0.5282,0.5259,0.5274,0.5252,0.5259,0.5238,0.5241,0.5206,0.5201,0.52,0.5202,0.5199,0.5199,0.5192,0.5196,0.5205,0.5205,0.5206,0.5206,0,0.534,0.5343,0.5305,0.5297,0.5294,0.5268,0.5261,0.524,0.524,0.5211,0.5205,0.5205,0.5181,0.5183,0.5156,0.5158,0.5115,0.5121,0.5119,0.5121,0.5092,0.5094,0.4995,0.4983,0.507,0.5069,0.5068,0,0.5295,0.527,0.526,0.5246,0.5239,0.5217,0.5204,0.5211,0.5196,0.5181,0.5162,0.5139,0.5122,0.5082,0.508,0.5059,0.5065,0.5032,0.5062,0.5061,0.5065,0.5067,0.5065,0.5025,0.5024,0.5024,0.5023,0,0.5215,0.5218,0.5198,0.518,0.5164,0.5149,0.5136,0.5124,0.513,0.5113,0.5089,0.5075,0.5048,0.5025,0.5006,0.5,0.5013,0.5014,0.5006,0.5003,0.5004,0.5004,0.5103,0.5016,0.5016,0.5017,0.5017,0.5018,0.5156,0.5136,0.5126,0.5104,0.5095,0.5082,0.5063,0.5061,0.5041,0.502,0.5025,0.4998,0.4987,0.4963,0.4955,0.4934,0.4946,0.4935,0.4932,0.4929,0.4926,0.5007,0.493,0.4931,0.4931,0.4931,0.4931,0,0.5078,0.5072,0.5052,0.5034,0.5017,0.5031,0.5017,0.5002,0.4978,0.4967,0.495,0.4922,0.4901,0.4897,0.4877,0.4861,0.4866,0.4855,0.4856,0.4855,0.4916,0.4925,0.4851,0.4851,0.4851,0.4851,0.4851,0.4851,0.5035,0.5,0.5002,0.4963,0.4958,0.4932,0.4923,0.4912,0.4904,0.4873,0.4855,0.4853,0.4845,0.4824,0.4805,0.4805,0.4797,0.4784,0.4786,0.4843,0.485,0.4858,0.4867,0.4782,0.4782,0.4727,0.4726,0.4726]},{"header":{"parameterUnit":"m.s-1","parameterCategory":1,"la1":30.2991,"la2":30.254,"lo1":-89.0895,"lo2":-89.0444,"dy":0.0017,"dx":0.0017,"nx":28,"ny":28,"refTime":"2023-09-07T21:00:00:Z","depth":0,"parameterNumber":3,"parameterNumberName":"V-component_of_WINDS"},"data":[0,0,0,0,0,0,0,0,0,0,0,0,0,0,0,0,0,0,0,0,0,0,0,0,0,0,0,0,0,0,0,0,0,0,0,0,0,0,0,0,0,0,0,0,0,0,0,0,0,0,0,0,0,0,0,0,0,0,-0.3402,-0.3402,0,-0.3427,-0.3428,-0.3428,-0.3417,-0.3416,-0.3416,-0.3415,-0.3442,-0.3443,-0.3444,0,0,0,0,0,0,0,0,0,0,0,0,0,-0.3344,-0.3345,-0.3402,-0.3402,-0.3402,-0.3427,-0.3428,-0.3428,-0.3417,-0.3416,-0.3416,-0.3415,-0.3441,-0.3443,-0.3444,0,0,0,0,0,0,0,0,0,0,0,0,0,-0.3369,-0.3346,-0.3402,-0.34,-0.34,-0.3427,-0.3428,-0.3428,-0.3417,-0.3416,-0.3415,-0.3415,-0.3441,-0.3442,-0.3444,-0.3475,0,0,-0.345,-0.3451,0,0,0,0,0,0,0,0,-0.3368,-0.3371,-0.34,-0.34,-0.34,-0.3418,-0.3417,-0.3444,-0.3418,-0.3411,-0.3415,-0.3414,-0.3434,-0.3437,-0.3444,-0.3476,-0.3477,-0.345,-0.3452,-0.3452,-0.3453,0,0,0,0,0,0,0,-0.3366,-0.337,-0.3412,-0.34,-0.3401,-0.3398,-0.3401,-0.3422,-0.3427,-0.3411,-0.341,-0.3414,-0.3434,-0.3442,-0.3444,-0.3478,-0.345,-0.3452,-0.3453,-0.3454,-0.3538,-0.3539,0,0,0,0,0,0,-0.3364,-0.3369,-0.3411,-0.3413,-0.3381,-0.34,-0.3403,-0.3413,-0.3427,-0.3428,-0.3414,-0.3413,-0.3439,-0.3442,-0.3445,-0.3483,-0.3452,-0.3454,-0.3455,-0.3537,-0.3538,-0.354,0,0,0,0,0,0,-0.3363,-0.3368,-0.341,-0.3391,-0.3396,-0.3402,-0.3414,-0.3414,-0.3422,-0.343,-0.3431,-0.3421,-0.3438,-0.3442,-0.3468,-0.3484,-0.3455,-0.3457,-0.3536,-0.3537,-0.3539,-0.3559,0,0,0,0,0,0,-0.3362,-0.3368,-0.3379,-0.3391,-0.3397,-0.3432,-0.3415,-0.3415,-0.3425,-0.3424,-0.3436,-0.3437,-0.3438,-0.3465,-0.347,-0.3486,-0.3458,-0.3534,-0.3537,-0.3538,-0.3557,-0.3561,-0.3565,0,0,0,0,0,-0.336,-0.3383,-0.338,-0.3385,-0.3411,-0.3433,-0.3437,-0.3437,-0.3426,-0.3438,-0.3444,-0.3437,-0.3481,-0.3468,-0.3473,-0.349,-0.3533,-0.3536,-0.3538,-0.3555,-0.356,-0.3565,0,0,0,0,0,0,-0.3373,-0.3385,-0.3381,-0.3409,-0.342,-0.3431,-0.3446,-0.3442,-0.3456,-0.3454,-0.3454,-0.3457,-0.3484,-0.3489,-0.3474,-0.3521,-0.3506,-0.3509,-0.3517,-0.3522,-0.3525,-0.3524,-0.346,0,0,0,0,0,-0.338,-0.3396,-0.3406,-0.343,-0.3435,-0.344,-0.3449,-0.3449,-0.346,-0.3465,-0.3472,-0.3483,-0.35,-0.3511,-0.3526,-0.3557,-0.3561,-0.3572,-0.3575,-0.3579,-0.3582,-0.3601,-0.3606,-0.3548,-0.3548,-0.3547,0,0,-0.3393,-0.3401,-0.3412,-0.3433,-0.3441,-0.3459,-0.3444,-0.3463,-0.3477,-0.3468,-0.3493,-0.3498,-0.3511,-0.354,-0.3553,-0.3545,-0.3599,-0.3582,-0.3584,-0.3586,-0.3604,-0.3609,-0.3614,-0.3549,-0.3549,-0.3549,0,0,-0.3427,-0.3434,-0.3456,-0.3465,-0.3478,-0.3481,-0.3486,-0.3498,-0.3502,-0.3527,-0.3521,-0.3537,-0.3565,-0.3575,-0.3584,-0.3622,-0.3617,-0.3627,-0.3648,-0.3666,-0.367,-0.3675,-0.369,-0.3696,-0.363,-0.363,-0.363,0,-0.3442,-0.3468,-0.3468,-0.3488,-0.3498,-0.3491,-0.3513,-0.3522,-0.354,-0.3547,-0.3538,-0.3574,-0.3582,-0.3614,-0.3624,-0.363,-0.3637,-0.3626,-0.367,-0.3674,-0.3678,-0.3693,-0.3698,-0.3632,-0.3631,-0.3631,-0.3631,0,-0.3487,-0.3506,-0.3522,-0.354,-0.3551,-0.3572,-0.3575,-0.3587,-0.3586,-0.359,-0.3616,-0.3625,-0.3644,-0.3651,-0.3649,-0.3683,-0.3678,-0.367,-0.3654,-0.3685,-0.3699,-0.3704,-0.3633,-0.3633,-0.3633,-0.3632,0,0,-0.353,-0.3548,-0.3554,-0.3563,-0.3577,-0.3592,-0.3613,-0.3631,-0.3642,-0.3654,-0.3673,-0.3698,-0.369,-0.37,-0.37,-0.3715,-0.3748,-0.3705,-0.3705,-0.3714,-0.3788,-0.3795,-0.3802,-0.3744,-0.3745,-0.3746,-0.3787,0,-0.3567,-0.3605,-0.3605,-0.364,-0.3658,-0.3652,-0.3671,-0.3682,-0.3686,-0.3702,-0.3707,-0.3725,-0.3713,-0.3719,-0.3734,-0.374,-0.3763,-0.3737,-0.3762,-0.3763,-0.3761,-0.3809,-0.3817,-0.3856,-0.3792,-0.3793,-0.3794,0,-0.3614,-0.3629,-0.3666,-0.3679,-0.3687,-0.3704,-0.3721,-0.3736,-0.3749,-0.3751,-0.3763,-0.376,-0.3783,-0.3766,-0.3798,-0.378,-0.3791,-0.3795,-0.3797,-0.38,-0.3782,-0.3816,-0.3868,-0.3874,-0.3802,-0.3802,-0.3801,0,-0.3645,-0.3674,-0.37,-0.3707,-0.3723,-0.3735,-0.3742,-0.3754,-0.3765,-0.378,-0.3788,-0.3805,-0.3815,-0.3829,-0.3831,-0.3818,-0.3864,-0.3846,-0.3867,-0.3867,-0.3878,-0.3878,-0.3935,-0.3882,-0.3882,-0.3882,-0.3882,0,-0.3686,-0.371,-0.3714,-0.3731,-0.3757,-0.3757,-0.3783,-0.3789,-0.38,-0.3818,-0.3813,-0.383,-0.3831,-0.3849,-0.385,-0.3878,-0.3882,-0.3885,-0.3886,-0.3887,-0.3886,-0.3894,-0.3893,-0.3883,-0.3883,-0.3883,-0.3882,0,-0.3725,-0.3729,-0.3758,-0.377,-0.3774,-0.3793,-0.3804,-0.382,-0.3824,-0.3847,-0.3852,-0.3859,-0.3879,-0.3883,-0.3906,-0.3908,-0.3941,-0.3938,-0.3937,-0.3937,-0.3959,-0.3957,-0.4024,-0.4034,-0.3973,-0.3973,-0.3974,0,-0.3752,-0.377,-0.3785,-0.3797,-0.3805,-0.3824,-0.3835,-0.3836,-0.3849,-0.3866,-0.388,-0.39,-0.3917,-0.395,-0.3957,-0.3976,-0.3974,-0.3996,-0.3977,-0.3978,-0.3977,-0.3977,-0.3979,-0.4,-0.4001,-0.4002,-0.4002,0,-0.3801,-0.3802,-0.3819,-0.3838,-0.3852,-0.3866,-0.388,-0.389,-0.3893,-0.3907,-0.3928,-0.3941,-0.3966,-0.3987,-0.4006,-0.4013,-0.4009,-0.4008,-0.4014,-0.4016,-0.4016,-0.4018,-0.3949,-0.4007,-0.4006,-0.4006,-0.4006,-0.4005,-0.3836,-0.3852,-0.3866,-0.3886,-0.3896,-0.3909,-0.3925,-0.3932,-0.3949,-0.397,-0.397,-0.3994,-0.4007,-0.4032,-0.4041,-0.406,-0.4053,-0.4061,-0.4064,-0.4066,-0.4069,-0.4011,-0.4063,-0.4063,-0.4063,-0.4062,-0.4062,0,-0.3886,-0.3894,-0.3912,-0.3932,-0.3948,-0.3942,-0.3957,-0.3971,-0.3992,-0.4005,-0.4021,-0.4047,-0.4067,-0.4076,-0.4096,-0.4109,-0.4108,-0.4115,-0.4115,-0.4117,-0.4073,-0.4067,-0.4116,-0.4116,-0.4116,-0.4116,-0.4116,-0.4116,-0.3914,-0.3942,-0.3945,-0.3978,-0.3987,-0.401,-0.402,-0.4032,-0.4043,-0.4071,-0.4088,-0.4094,-0.4106,-0.4127,-0.4145,-0.4147,-0.4156,-0.4164,-0.4165,-0.4125,-0.412,-0.4115,-0.4109,-0.4165,-0.4165,-0.4208,-0.4208,-0.4208]}]]